RH
20 22 24 25 24 24 24 27 32 32 33 31 28 22 18 16 14 13 12 12 12 13 13 13 13 13 15 16 17 18 20 21 23 25 26 26 26 20
23 21 25 28 29 29 28 31 34 36 38 36 31 24 19 16 13 10 8 7 8 8 7 7 7 7 7 7 7 6 6 7 7 8 9 13 18 23
24 22 22 27 31 33 33 34 40 43 42 40 33 27 21 17 12 9 8 11 12 12 12 11 11 10 10 10 10 9 10 11 11 10 9 8 7 7
31 28 25 26 32 36 38 39 45 51 49 46 37 29 21 15 9 9 11 12 12 12 12 13 13 14 15 15 14 12 9 7 5 5 5 5 6 5
44 37 33 28 32 38 42 44 50 56 55 51 42 32 23 14 10 12 16 19 20 18 18 16 17 19 19 17 12 8 6 6 6 6 7 7 8 9
59 48 42 34 32 40 45 49 58 61 61 55 44 35 22 13 11 14 20 25 25 27 28 28 28 26 24 21 18 12 8 6 6 6 6 7 8 8
79 64 56 46 34 41 48 58 66 68 66 54 44 33 18 11 13 21 24 25 25 27 28 32 32 33 32 31 29 27 24 19 13 10 8 8 8 8
90 76 64 59 36 40 49 64 72 76 71 56 44 28 15 15 21 27 32 29 24 36 33 34 34 33 34 36 38 39 37 32 28 25 20 15 11 9
97 93 70 64 47 39 52 71 81 77 76 62 49 25 16 24 32 33 35 35 37 42 38 34 36 32 28 20 13 11 11 16 25 36 40 35 25 19
92 98 82 78 50 39 53 76 78 76 84 73 49 19 24 40 42 41 40 46 46 49 45 33 21 11 8 6 6 5 5 5 5 5 8 20 38 40
96 96 90 83 56 40 47 78 82 87 93 84 40 18 34 46 52 50 54 54 50 46 36 15 12 8 6 6 7 8 8 9 8 8 7 10 16 28
97 96 94 90 69 41 46 74 81 96 96 82 27 21 41 52 59 62 62 58 53 36 21 15 11 8 7 8 9 10 12 15 16 15 14 14 15 18
96 96 96 95 87 69 56 80 92 92 94 78 18 27 44 58 64 68 67 60 48 22 21 17 12 9 10 9 10 11 13 15 19 28 33 32 28 33
97 96 96 95 95 80 79 95 94 96 94 62 15 32 47 63 69 70 67 57 36 19 18 15 10 12 12 11 12 14 15 17 22 31 42 45 43 44
96 98 96 96 96 89 96 97 96 95 92 28 20 37 55 67 72 72 65 53 28 18 17 13 13 15 17 16 16 18 18 21 29 36 44 46 44 49
100 98 98 97 96 96 96 97 96 95 68 17 30 42 66 75 76 74 63 48 23 18 16 14 13 14 14 16 19 19 26 26 33 40 40 40 43 48
96 98 98 97 97 96 96 96 96 94 31 22 36 59 74 78 77 72 64 47 24 14 14 15 13 13 14 15 18 23 29 30 40 43 44 35 36 44
95 94 97 96 96 96 96 96 96 75 18 31 51 74 78 79 76 72 61 40 25 16 12 15 16 16 17 22 36 45 41 39 46 48 44 38 26 30
93 95 98 97 96 96 96 96 95 27 24 42 71 80 83 83 77 71 55 37 26 20 16 17 17 19 23 44 76 75 82 82 56 47 48 43 33 28
94 95 96 96 97 96 96 96 67 19 36 67 82 85 86 83 76 70 55 40 30 25 27 29 28 27 38 72 86 79 97 95 97 86 74 61 57 62
99 95 96 96 96 96 96 92 20 26 56 81 82 84 88 82 78 72 59 49 37 36 46 62 70 72 81 92 88 86 92 100 98 96 91 88 80 74
98 96 96 96 96 96 96 38 19 45 74 70 66 83 86 82 82 76 71 55 52 54 62 82 97 99 98 99 96 94 90 96 100 99 99 99 96 69
99 96 96 96 95 96 72 18 34 65 59 41 59 85 88 86 89 89 86 80 80 79 86 91 98 97 91 94 97 94 96 97 98 94 92 100 99 98
Wind_Speed
27 27 27 27 27 27 28 28 28 27 25 28 32 31 31 31 29 29 29 27 28 29 30 29 29 28 28 29 30 31 31 31 32 32 33 35 36 37
29 29 28 27 27 27 28 29 30 31 29 28 29 32 32 31 31 30 28 27 27 27 27 27 28 27 27 27 27 27 28 28 28 27 28 29 31 34
31 30 30 30 29 29 29 29 30 33 33 29 31 32 32 32 31 30 28 26 26 27 27 27 26 26 26 28 30 31 31 31 31 30 30 29 30 30
31 31 31 32 31 31 30 30 30 33 35 32 30 31 33 34 31 29 28 28 28 27 28 28 28 29 31 32 33 35 36 35 32 30 28 28 27 26
31 31 32 32 32 32 32 31 31 32 35 36 32 32 32 34 31 30 28 27 27 27 29 30 31 31 32 33 34 34 35 35 35 35 35 35 34 33
32 32 32 33 33 33 33 33 33 35 36 37 35 33 32 31 31 31 28 27 26 27 29 30 31 31 33 35 36 38 39 41 43 43 43 42 41 40
32 32 33 33 33 33 33 33 34 36 36 37 35 34 31 30 30 30 29 28 27 28 29 29 31 30 31 33 35 38 41 44 47 48 49 50 49 48
32 33 33 33 34 34 33 34 34 36 37 38 35 34 30 30 30 30 29 29 27 28 31 26 30 30 31 32 34 35 38 42 45 48 50 52 54 54
34 36 34 33 33 35 35 35 35 36 39 39 37 34 32 29 29 28 28 29 28 26 32 29 31 31 31 31 33 36 39 42 44 47 49 51 53 55
38 39 34 33 32 34 36 36 36 39 39 38 37 33 32 29 31 30 28 29 27 26 30 29 27 29 30 31 33 36 39 43 46 50 52 53 53 54
40 35 33 34 32 35 37 37 39 40 39 37 35 32 29 29 29 31 29 30 28 27 24 31 32 32 32 33 34 34 35 38 41 45 48 51 53 54
37 35 33 33 34 35 38 39 43 39 37 35 32 30 29 28 28 30 30 30 31 28 25 32 34 37 38 36 36 35 36 37 39 40 42 45 48 52
33 37 34 37 38 36 38 43 42 40 36 33 29 28 27 27 27 28 29 30 29 28 29 36 38 37 40 42 38 37 38 38 39 39 38 41 43 44
42 41 41 41 40 36 41 41 43 39 36 32 30 26 26 26 27 28 29 28 28 29 29 33 37 37 40 42 41 40 39 38 39 38 39 40 40 41
40 42 43 43 39 40 39 40 38 36 33 33 29 27 27 26 27 27 27 27 28 27 29 32 36 38 40 41 43 41 40 36 35 36 36 36 37 37
41 42 42 42 42 38 33 37 36 34 31 31 29 27 26 27 28 28 27 27 28 26 27 30 34 38 40 40 42 41 36 38 33 33 35 34 33 33
40 40 39 40 38 30 33 34 34 29 31 30 29 28 27 28 27 27 28 28 29 29 28 29 32 37 39 39 41 40 37 36 31 32 33 32 30 31
37 35 35 35 29 29 32 31 31 27 30 29 29 28 28 27 27 27 27 28 30 30 31 32 35 38 40 39 37 40 37 35 33 34 34 36 34 34
35 30 30 29 27 30 30 31 27 28 27 27 27 26 27 27 27 27 26 28 30 32 30 32 35 37 43 46 41 39 39 34 36 36 36 37 39 33
34 28 28 27 28 29 29 29 26 27 25 26 25 25 26 27 26 26 26 28 30 32 33 31 33 36 40 45 47 40 36 38 38 39 37 37 38 36
31 28 28 26 29 26 28 25 27 24 24 24 24 25 25 27 26 26 27 27 31 33 35 33 32 36 42 45 46 43 37 35 36 38 38 39 36 33
30 28 27 28 25 25 25 25 24 23 23 23 23 24 24 26 27 27 27 29 30 32 35 35 33 36 38 38 41 41 37 32 31 33 33 34 35 32
30 28 27 25 24 24 23 24 21 21 22 22 22 23 24 25 27 28 29 30 33 34 36 38 37 36 37 37 37 38 36 32 30 29 25 26 27 31
Wind_Direction
295 296 296 297 299 302 304 307 311 313 311 307 304 302 299 297 294 290 287 281 278 279 280 281 281 277 272 271 271 272 272 273 273 271 268 265 261 259
295 294 294 294 295 298 302 306 311 312 313 308 302 299 297 295 291 288 284 282 282 280 278 276 275 278 280 281 280 278 276 274 272 271 268 267 264 261
294 294 293 293 295 297 300 303 307 310 311 310 304 300 298 295 291 287 284 282 281 281 279 276 276 276 276 276 277 278 276 275 273 273 271 269 266 264
296 295 294 293 294 295 297 300 305 308 309 308 303 299 297 293 289 285 283 282 282 280 275 273 274 276 277 277 276 273 271 269 267 267 267 267 269 268
299 297 296 293 292 292 294 297 301 306 306 306 303 300 297 292 287 284 283 284 283 282 280 279 280 281 282 281 279 277 274 270 269 267 267 268 269 270
300 299 296 293 291 291 294 298 303 308 309 306 304 301 298 291 286 282 281 282 281 280 280 281 283 283 283 283 282 279 276 273 271 269 268 266 265 265
300 299 296 293 290 290 292 297 302 307 308 304 303 301 298 290 284 282 284 282 283 284 282 285 285 286 286 286 285 283 282 280 277 274 270 269 268 266
298 296 296 295 292 290 291 295 301 306 306 303 302 301 297 290 284 284 287 287 286 286 285 288 288 289 289 289 289 289 287 283 279 277 274 272 270 267
293 294 294 293 292 290 289 294 302 306 306 302 302 301 297 290 284 284 288 288 289 291 291 295 294 295 295 298 299 296 293 290 286 282 277 273 268 266
293 288 291 291 290 288 289 292 301 308 303 298 300 299 296 292 291 290 289 289 293 295 295 296 291 293 295 298 299 299 298 295 290 285 281 276 272 268
291 283 292 292 292 291 290 294 301 304 299 295 296 295 290 288 290 291 295 296 298 296 296 296 299 298 296 298 299 302 300 298 296 292 286 279 274 269
282 288 294 294 292 290 288 290 301 300 295 291 295 291 288 287 288 291 294 295 296 295 300 298 300 301 299 301 306 310 308 306 302 297 291 285 280 273
281 293 295 291 287 287 285 291 300 299 294 292 292 283 282 283 285 288 291 293 293 297 306 306 306 304 302 304 308 309 307 307 301 295 289 285 281 277
291 293 291 288 287 283 283 289 299 294 292 294 292 283 282 283 286 288 288 287 289 296 303 303 303 303 302 304 308 307 307 306 300 298 292 285 279 275
289 290 289 288 286 280 289 292 294 289 290 292 287 283 284 284 285 285 285 281 286 296 302 307 306 304 304 305 304 304 306 302 303 299 294 288 284 278
291 289 289 289 286 289 290 294 290 286 289 289 283 285 286 286 287 288 285 280 290 295 296 300 301 301 303 303 301 305 304 301 304 300 296 293 289 283
288 289 291 290 290 286 288 290 283 286 289 285 284 286 285 285 287 287 283 282 289 296 297 295 295 297 299 301 302 303 301 299 297 294 293 297 295 288
292 292 291 291 283 282 287 285 281 286 284 280 284 286 287 288 291 290 287 289 294 297 302 304 302 299 298 298 301 299 299 297 291 286 285 287 291 288
298 292 289 283 280 285 285 281 283 285 281 282 284 286 288 291 293 293 290 293 299 302 304 305 304 303 301 306 308 301 300 296 292 289 288 288 289 289
295 287 285 280 281 282 282 281 286 284 281 282 284 286 289 293 293 292 290 294 299 304 307 306 305 303 303 307 310 312 307 300 296 291 288 285 288 292
290 283 282 278 281 281 281 283 286 281 282 284 286 289 291 295 296 292 292 297 299 304 308 312 313 312 311 312 311 314 310 304 299 296 296 293 294 291
286 282 277 278 277 279 281 286 284 283 284 285 287 290 292 296 297 293 293 295 297 301 303 308 313 312 313 310 309 310 312 307 300 295 291 290 290 289
286 279 277 277 278 279 283 285 281 283 283 285 288 290 292 297 297 296 297 296 298 302 305 310 313 313 316 315 313 314 314 314 308 301 296 288 282 282